Temp
5 6 6 5 5 5 5 5 5 5 5 5 5 5 5 5 5 5 5 5 5 5 5 5 5 5 6 6 6 6 6 6 6 6 6 6 6 6 6 6 5 5 5
4 4 5 5 5 5 4 5 5 5 5 5 5 5 5 5 4 4 4 4 4 5 5 4 5 5 5 5 5 5 6 6 6 6 6 6 6 6 5 5 5 5 5
4 3 4 4 4 5 4 5 5 5 4 4 5 4 4 4 4 4 4 4 4 4 5 5 4 5 5 5 5 5 5 5 6 6 6 6 5 5 5 5 5 5 5
3 3 3 3 4 4 4 4 4 5 5 4 4 4 4 4 4 4 4 4 4 4 4 4 4 4 5 5 5 5 5 5 5 5 5 5 5 5 5 4 4 4 4
2 2 3 4 4 4 4 4 4 4 5 4 4 4 4 4 3 4 4 4 4 4 4 4 4 4 4 4 5 5 5 5 5 5 5 5 5 4 4 4 4 4 4
2 2 3 4 4 4 4 4 4 4 4 4 4 4 4 3 4 3 4 4 4 4 4 4 4 4 4 4 4 4 5 5 4 4 4 5 5 4 4 4 4 4 4
1 1 2 3 4 4 4 4 4 4 4 4 3 3 3 3 2 3 3 4 3 3 3 4 4 4 4 4 4 4 4 4 4 4 4 4 4 4 4 4 3 3 3
2 2 2 2 3 3 4 4 4 4 3 3 3 3 3 3 3 3 3 3 2 2 2 3 3 4 4 4 4 4 4 4 4 4 4 4 4 3 3 3 3 3 3
1 2 2 2 3 3 4 3 3 3 3 3 3 2 2 3 3 3 3 2 0 1 2 2 3 3 3 3 4 4 3 3 3 3 3 3 3 3 3 3 3 2 2
1 1 2 2 2 2 3 3 3 3 2 2 2 3 2 2 2 2 2 2 1 1 2 3 3 3 3 3 3 3 3 3 3 3 3 3 3 2 2 2 2 2 2
1 1 2 2 2 2 3 3 3 2 2 2 2 2 2 2 2 2 2 2 1 1 2 2 2 2 2 3 3 3 2 2 1 1 3 2 3 2 2 2 2 2 2
1 1 2 2 2 2 2 2 2 2 2 2 2 2 2 2 2 2 2 2 2 2 1 2 2 2 2 3 3 2 1 1 1 1 2 2 1 1 2 2 2 2 2
1 2 2 1 1 2 2 2 2 2 2 2 2 2 2 2 2 2 2 2 2 2 -0 1 2 2 2 2 2 1 1 1 1 1 2 1 1 1 1 1 1 1 2
1 1 1 1 2 2 2 1 2 1 1 2 2 2 1 2 2 2 2 2 2 1 0 1 2 2 1 2 1 0 0 1 1 1 1 1 1 1 1 2 1 1 1
1 1 1 1 1 1 1 1 1 1 1 2 2 2 2 2 2 2 2 2 2 1 1 1 2 2 2 1 0 -1 -0 0 1 1 1 1 1 1 1 1 1 1 0
-0 -1 -1 -0 1 1 0 1 0 1 1 1 1 1 2 1 1 1 2 1 0 0 0 1 1 1 0 0 -0 -0 0 0 1 0 1 1 1 1 1 1 1 1 0
-0 -0 0 -0 -0 -0 -0 0 0 1 1 1 1 1 1 1 2 2 1 1 1 0 1 1 0 1 0 -0 -0 -0 0 0 0 0 1 1 1 1 1 1 1 0 -0
-1 -1 -1 -0 -1 -1 -1 -1 -0 -0 -0 -0 -0 0 0 0 0 0 0 1 1 0 0 1 0 0 0 -0 -0 -0 -0 0 0 1 1 1 1 1 1 1 1 -0 -1
-3 -2 -3 -3 -2 -2 -1 -1 -0 -1 -0 -0 -1 -1 -0 -0 -0 -0 0 -0 0 0 -0 -0 1 0 0 -0 -0 0 0 0 1 1 1 1 1 0 0 0 -0 -0 0
-2 -1 -1 -1 -1 -1 -0 -0 -0 -0 -0 -0 -0 0 0 0 1 0 -0 -0 -0 -0 -0 -0 -0 -0 0 0 0 0 0 0 1 1 0 -0 -1 -1 -0 -0 -1 -0 0
-2 -1 -1 -1 -1 -1 -0 -0 -0 -0 -0 -1 -0 -1 -0 -0 0 0 -0 -0 -0 -0 -1 0 0 -0 -0 -0 0 0 -0 -0 0 0 -1 -1 -1 -1 -1 -1 -1 -0 -0
-1 -1 -1 -1 -1 -1 -0 -0 -0 -0 -1 -1 -1 -1 -1 -1 -1 -1 -1 -0 -1 -1 -1 -1 -1 -0 -0 -0 -0 -0 -0 -0 -0 -0 -1 -1 -1 -1 -1 -1 -1 -0 0
-2 -2 -2 -2 -2 -2 -2 -2 -2 -2 -2 -2 -2 -2 -2 -2 -2 -2 -2 -2 -1 -1 -1 -2 -1 -2 -1 -0 -0 -1 -0 -0 -1 -1 -1 -1 -1 -1 -1 -1 -1 -1 -0
-2 -1 -1 -1 -1 -2 -2 -2 -2 -2 -3 -3 -3 -3 -3 -3 -3 -3 -3 -2 -2 -2 -2 -2 -2 -2 -3 -3 -2 -1 -1 -1 -1 -1 -1 -1 -2 -1 -1 -1 -1 -1 -1
-2 -2 -2 -3 -3 -3 -3 -3 -3 -3 -3 -3 -3 -4 -4 -4 -4 -4 -4 -4 -3 -3 -3 -3 -3 -3 -3 -3 -3 -2 -2 -1 -1 -1 -1 -1 -1 -1 -1 -2 -1 -1 -1
-4 -4 -5 -5 -5 -6 -6 -6 -6 -6 -6 -6 -6 -6 -6 -6 -6 -5 -5 -5 -5 -6 -6 -4 -4 -4 -4 -3 -4 -4 -3 -2 -2 -2 -1 -1 -2 -2 -2 -2 -1 -2 -2
Height
3136 3137 3138 3139 3140 3142 3143 3145 3146 3146 3148 3149 3150 3151 3152 3152 3152 3152 3153 3154 3154 3154 3153 3153 3153 3153 3153 3153 3153 3154 3154 3154 3153 3153 3152 3152 3152 3151 3150 3149 3148 3146 3144
3129 3131 3132 3134 3136 3136 3138 3140 3141 3142 3142 3143 3144 3146 3147 3148 3149 3149 3149 3150 3151 3151 3151 3150 3150 3150 3150 3150 3151 3151 3151 3151 3151 3151 3151 3150 3149 3148 3148 3146 3145 3143 3141
3123 3125 3127 3128 3130 3132 3132 3133 3135 3135 3135 3136 3138 3140 3141 3143 3144 3145 3146 3146 3146 3146 3147 3147 3147 3147 3147 3147 3147 3147 3147 3147 3147 3147 3147 3148 3147 3146 3145 3144 3142 3140 3137
3117 3120 3122 3124 3124 3125 3127 3127 3129 3130 3130 3130 3131 3133 3135 3136 3139 3138 3140 3142 3142 3141 3142 3143 3143 3144 3144 3144 3144 3144 3145 3144 3144 3144 3144 3144 3143 3143 3142 3140 3139 3136 3133
3108 3114 3117 3119 3119 3119 3120 3121 3122 3123 3124 3124 3125 3127 3126 3130 3133 3133 3134 3136 3137 3138 3138 3138 3139 3139 3139 3140 3140 3140 3140 3140 3140 3140 3140 3140 3140 3139 3138 3136 3134 3132 3130
3107 3109 3111 3112 3113 3113 3114 3115 3115 3116 3116 3117 3117 3116 3118 3122 3122 3125 3128 3128 3130 3132 3133 3133 3134 3134 3135 3135 3136 3136 3136 3136 3136 3136 3135 3136 3135 3134 3133 3132 3131 3129 3126
3093 3100 3105 3105 3106 3107 3106 3107 3107 3108 3109 3110 3109 3109 3110 3112 3113 3115 3120 3122 3123 3125 3126 3127 3128 3129 3129 3130 3130 3131 3131 3131 3131 3131 3131 3131 3131 3130 3128 3127 3126 3124 3122
3091 3096 3095 3097 3099 3100 3100 3100 3101 3101 3101 3102 3102 3103 3101 3105 3104 3109 3110 3112 3113 3117 3116 3119 3121 3123 3123 3123 3124 3125 3125 3126 3126 3126 3126 3126 3125 3125 3123 3122 3121 3119 3117
3086 3087 3089 3091 3093 3094 3094 3094 3094 3094 3093 3093 3093 3094 3092 3091 3098 3097 3099 3102 3104 3108 3112 3113 3114 3116 3116 3117 3118 3119 3119 3120 3120 3121 3120 3120 3119 3119 3118 3117 3116 3114 3112
3080 3079 3081 3083 3085 3085 3085 3085 3086 3086 3085 3084 3084 3085 3086 3085 3086 3087 3088 3090 3094 3098 3102 3104 3107 3108 3109 3109 3111 3112 3113 3114 3113 3113 3114 3114 3114 3113 3112 3111 3110 3108 3106
3072 3073 3075 3076 3077 3077 3077 3078 3079 3078 3077 3077 3075 3076 3076 3077 3078 3077 3077 3081 3083 3088 3091 3094 3097 3098 3099 3101 3103 3104 3104 3105 3105 3107 3107 3107 3107 3106 3105 3104 3103 3102 3100
3065 3065 3066 3068 3068 3068 3069 3070 3070 3069 3069 3069 3067 3066 3066 3067 3068 3069 3069 3073 3074 3076 3080 3083 3086 3090 3091 3092 3093 3094 3094 3095 3096 3098 3099 3098 3097 3096 3096 3095 3094 3095 3094
3057 3058 3059 3059 3059 3059 3060 3060 3060 3060 3060 3059 3059 3057 3057 3057 3058 3058 3058 3059 3062 3066 3067 3071 3074 3077 3080 3081 3082 3085 3084 3085 3085 3088 3089 3090 3089 3088 3089 3088 3087 3087 3088
3051 3051 3051 3051 3051 3051 3051 3052 3051 3051 3052 3051 3049 3048 3048 3046 3047 3048 3046 3050 3049 3052 3055 3058 3062 3065 3068 3071 3072 3073 3072 3073 3076 3077 3079 3080 3080 3080 3081 3080 3081 3080 3081
3045 3044 3043 3043 3044 3043 3043 3043 3043 3042 3042 3041 3039 3039 3037 3036 3035 3036 3036 3036 3037 3038 3041 3048 3049 3053 3057 3059 3060 3061 3061 3062 3064 3065 3067 3068 3068 3070 3071 3071 3072 3073 3073
3039 3037 3036 3036 3036 3035 3035 3034 3033 3034 3032 3031 3030 3028 3028 3026 3024 3025 3026 3027 3027 3028 3029 3037 3037 3041 3046 3046 3047 3049 3049 3051 3053 3054 3055 3057 3057 3059 3060 3062 3062 3064 3065
3032 3031 3029 3028 3026 3026 3026 3026 3025 3024 3023 3021 3020 3020 3018 3017 3015 3016 3016 3016 3017 3019 3019 3024 3025 3028 3028 3033 3035 3035 3036 3039 3040 3041 3042 3044 3045 3047 3049 3051 3053 3054 3056
3025 3024 3024 3021 3019 3016 3016 3018 3016 3014 3014 3012 3011 3010 3010 3008 3008 3007 3007 3008 3007 3008 3010 3012 3013 3015 3017 3020 3021 3023 3024 3026 3026 3027 3028 3030 3032 3035 3037 3040 3042 3044 3047
3018 3017 3016 3016 3015 3014 3013 3012 3011 3010 3009 3007 3005 3004 3002 3000 2999 2999 2999 3000 3000 2999 2999 3000 3002 3003 3004 3005 3006 3008 3009 3011 3013 3014 3015 3018 3020 3023 3026 3028 3031 3035 3039
3014 3012 3010 3009 3008 3006 3004 3003 3002 3000 2999 2998 2996 2994 2994 2992 2991 2991 2991 2992 2991 2991 2991 2991 2992 2993 2993 2995 2994 2995 2997 2999 3001 3002 3003 3006 3009 3012 3016 3019 3025 3028 3031
3007 3004 3003 3000 2998 2995 2994 2992 2990 2989 2988 2987 2985 2984 2983 2983 2981 2981 2980 2982 2982 2981 2981 2982 2982 2983 2983 2984 2985 2987 2988 2990 2990 2991 2993 2997 3000 3004 3008 3012 3016 3020 3022
2997 2995 2992 2990 2988 2985 2981 2979 2977 2975 2974 2973 2972 2972 2970 2970 2969 2969 2968 2968 2968 2968 2970 2971 2971 2972 2974 2975 2978 2979 2979 2980 2982 2985 2987 2990 2993 2996 3000 3005 3009 3012 3014
2988 2985 2982 2978 2976 2974 2971 2969 2965 2962 2960 2958 2957 2956 2956 2955 2955 2953 2953 2952 2954 2954 2954 2957 2958 2959 2962 2965 2969 2969 2970 2973 2974 2978 2979 2982 2985 2989 2993 2996 3000 3003 3006
2980 2977 2973 2969 2966 2963 2958 2954 2950 2946 2945 2943 2941 2939 2938 2938 2937 2935 2934 2935 2935 2937 2939 2940 2941 2944 2947 2951 2953 2957 2960 2963 2964 2966 2968 2970 2975 2977 2983 2986 2989 2993 2997
2972 2968 2964 2960 2955 2953 2948 2943 2938 2934 2931 2928 2926 2924 2921 2919 2918 2918 2915 2914 2915 2918 2921 2924 2925 2926 2929 2934 2938 2943 2943 2947 2948 2952 2956 2961 2965 2967 2971 2973 2978 2983 2986
2963 2959 2955 2949 2945 2941 2938 2934 2930 2925 2922 2919 2916 2912 2910 2907 2902 2900 2897 2895 2893 2897 2901 2903 2907 2909 2911 2916 2921 2925 2929 2933 2937 2936 2941 2948 2952 2957 2958 2961 2965 2970 2975
Wind_Speed
27 28 28 26 25 26 24 26 26 27 26 25 25 24 23 22 20 19 17 16 16 15 14 14 14 15 14 14 13 12 12 11 10 10 9 8 9 10 13 15 15 17 20
28 25 24 26 28 26 25 25 28 29 31 28 27 28 26 26 24 23 20 18 17 17 16 16 16 16 16 15 15 14 14 13 12 12 11 11 11 12 14 16 17 20 22
21 18 22 21 23 26 28 28 30 27 36 29 32 31 30 30 28 26 25 22 20 19 19 18 17 17 17 16 16 16 15 15 14 14 13 13 14 15 16 17 19 20 23
20 17 16 17 20 23 26 28 30 33 33 32 37 35 34 32 34 30 29 27 25 22 21 20 19 19 19 18 18 17 16 16 15 15 16 17 17 18 19 21 21 21 22
13 14 15 22 26 26 26 27 31 32 36 37 34 40 38 38 38 35 33 30 29 26 23 22 22 21 20 20 19 19 18 18 18 18 18 19 20 21 22 22 22 21 22
24 19 26 27 30 31 31 32 30 32 32 35 39 38 35 42 42 44 37 36 32 29 28 25 24 23 23 22 22 21 20 19 19 20 20 21 22 23 23 24 23 23 23
23 28 23 29 31 32 28 32 32 33 35 36 38 40 42 33 40 46 44 42 37 34 31 28 27 27 25 26 25 23 23 22 22 22 23 23 24 25 26 26 25 26 23
24 32 32 31 31 30 30 28 30 30 32 36 40 37 41 44 49 41 42 51 51 42 35 30 30 29 28 28 27 25 24 23 22 23 22 24 24 25 27 27 29 26 24
31 33 32 30 29 31 29 29 26 29 32 33 32 35 40 43 35 37 41 45 47 42 37 31 34 33 31 29 27 26 22 20 22 25 23 22 22 25 27 28 32 29 25
28 31 32 31 32 29 28 27 28 27 31 34 34 36 36 38 36 35 38 41 54 43 40 39 37 36 31 30 29 30 30 30 30 28 26 22 23 26 30 32 33 27 25
33 34 34 33 33 31 31 32 32 32 33 33 37 39 38 39 39 42 40 39 42 45 43 42 42 41 34 36 36 37 34 29 29 28 31 31 36 41 39 35 31 28 25
32 34 36 37 37 36 34 35 36 37 37 38 39 36 41 43 44 42 45 42 43 46 50 42 43 46 46 45 43 40 41 43 47 36 39 40 47 37 34 33 30 25 26
32 34 33 33 33 35 37 35 35 38 36 36 39 44 41 48 42 45 48 48 48 47 53 51 49 47 45 41 38 41 42 54 37 38 39 48 38 37 33 33 33 34 28
32 34 34 34 35 34 33 35 34 35 37 38 41 37 35 40 47 43 51 49 53 48 50 53 54 49 46 46 51 47 57 48 43 47 48 47 44 41 35 36 34 37 32
32 31 32 34 33 36 33 35 33 33 34 29 37 30 40 34 41 41 43 54 55 53 50 52 56 53 51 48 51 59 62 50 51 49 50 48 44 40 37 37 32 34 33
27 27 28 28 31 34 31 33 33 31 36 38 29 29 31 29 33 40 43 46 49 50 57 56 55 58 56 59 60 62 53 52 57 56 57 49 43 39 35 40 36 38 29
24 28 26 25 27 21 26 30 29 28 32 31 27 30 35 24 24 40 39 37 37 42 51 52 53 53 50 49 52 55 51 46 50 51 48 50 45 41 43 45 39 39 30
32 30 29 34 25 19 19 21 26 23 27 29 21 25 27 31 31 30 26 25 41 41 45 40 53 51 55 57 58 61 63 60 49 46 37 42 41 44 45 43 43 40 26
16 16 16 19 21 25 25 26 26 28 29 28 28 29 29 27 26 24 26 27 30 30 32 38 38 42 48 56 61 48 47 45 46 41 43 43 49 47 47 44 43 33 32
21 22 23 26 28 30 31 32 33 33 34 34 34 33 34 33 33 34 33 33 31 30 32 39 37 37 34 34 29 34 39 40 38 41 38 43 45 45 43 39 34 32 33
24 26 27 30 31 33 36 36 37 38 38 38 39 40 40 41 41 41 40 38 40 42 42 40 29 33 34 37 33 30 31 33 35 37 39 40 41 40 39 35 33 35 33
29 31 33 34 36 38 41 43 44 45 44 44 44 45 45 46 47 48 48 49 47 46 45 45 46 42 35 34 34 30 33 32 32 31 30 33 38 36 35 36 35 34 33
33 34 36 37 38 39 41 42 43 45 46 46 47 48 48 50 51 52 53 54 54 54 53 49 50 49 46 45 32 40 38 35 38 35 29 30 33 33 35 39 36 36 34
34 34 35 37 38 40 42 44 46 47 47 46 47 47 48 48 48 52 55 57 58 58 57 56 56 53 52 50 49 43 39 40 42 41 40 35 39 37 42 44 40 37 34
34 35 37 38 41 41 42 44 45 46 47 47 47 47 49 50 49 49 51 54 57 60 60 60 60 60 58 53 52 49 51 42 49 51 48 48 42 42 39 44 47 38 35
34 36 36 37 37 37 37 38 39 41 42 43 44 45 46 48 51 53 55 56 57 52 55 58 61 62 61 60 55 58 47 51 56 44 48 48 44 44 48 50 48 44 42
Wind_Direction
241 240 237 237 239 240 236 241 247 250 250 247 248 247 249 246 245 247 248 255 259 256 253 253 252 250 248 248 249 247 246 245 243 246 253 267 290 303 313 319 322 325 326
233 237 239 239 238 240 240 239 246 250 256 244 245 246 246 247 246 248 247 248 254 261 261 257 254 253 251 249 250 249 249 251 253 251 259 268 280 292 301 308 319 323 326
218 228 234 237 243 244 246 241 247 253 244 252 245 240 241 245 246 247 249 248 246 251 257 259 259 256 254 253 251 249 248 249 251 260 268 273 282 290 296 306 316 324 325
212 231 237 245 242 245 249 254 250 249 260 261 249 245 239 244 244 241 246 248 249 246 248 252 255 256 257 255 254 252 252 258 263 268 275 282 289 294 299 305 312 320 324
213 241 258 261 255 254 257 259 257 258 259 260 254 257 245 243 245 245 242 244 248 251 252 252 254 254 254 256 256 253 252 255 261 266 272 278 286 292 296 301 307 316 320
239 244 260 266 262 259 259 261 263 262 263 261 259 251 259 253 256 241 243 243 243 247 252 253 256 255 255 255 255 258 259 261 266 270 274 279 283 287 292 296 303 311 315
242 298 277 272 261 256 263 261 262 263 264 262 257 261 260 265 252 241 248 244 241 244 248 253 258 258 255 255 255 258 262 265 268 270 274 277 282 286 290 292 298 304 305
269 250 248 247 248 253 258 264 257 262 262 262 260 261 257 258 259 261 256 240 238 236 236 249 258 261 259 254 255 256 260 270 274 274 272 275 278 283 286 289 298 298 301
240 242 249 250 252 251 260 261 264 267 266 262 263 264 265 267 269 259 256 258 243 240 243 249 259 262 261 257 254 256 260 266 274 274 271 273 279 279 285 289 295 291 297
246 248 249 252 253 254 258 266 263 274 268 263 260 262 269 272 268 265 259 254 246 237 242 247 254 256 255 257 253 253 254 260 275 269 264 270 275 280 288 289 291 286 290
250 251 251 252 253 256 261 260 263 267 269 270 265 264 267 266 266 265 267 260 247 235 245 247 247 247 259 260 255 254 249 261 265 261 267 270 278 285 287 285 283 279 281
253 253 253 257 256 261 260 262 264 265 263 269 261 260 262 261 263 266 267 263 251 249 231 242 243 249 255 252 250 248 257 268 264 256 265 274 286 275 276 281 280 274 279
255 257 256 257 257 259 263 264 267 262 263 269 265 262 261 263 262 265 265 266 258 253 234 236 245 248 253 250 247 255 258 269 250 255 266 278 277 277 275 275 280 283 272
259 257 257 258 259 261 263 262 266 262 263 274 269 265 267 266 256 261 261 260 252 246 244 235 248 248 251 255 251 254 262 262 251 263 266 271 275 273 267 270 271 273 267
263 263 262 262 259 257 259 266 263 265 263 265 264 264 264 274 264 261 263 259 254 248 254 246 244 246 253 255 254 260 264 257 255 262 270 274 278 269 267 266 266 265 260
262 265 266 264 256 259 262 262 261 262 264 270 256 259 265 270 269 268 262 261 260 258 257 252 256 245 248 251 255 262 268 265 262 265 269 269 265 264 268 273 264 262 245
245 253 249 242 238 245 250 252 250 250 248 251 253 262 252 262 273 266 266 262 262 257 253 256 255 255 257 256 261 265 261 264 267 270 268 265 259 260 266 268 262 249 234
267 268 270 261 263 270 280 285 264 263 269 260 266 259 264 271 260 258 249 277 267 258 262 256 264 259 262 258 260 265 267 268 269 265 253 261 263 259 260 258 258 235 226
281 278 293 292 289 285 282 279 278 279 277 278 278 276 275 261 248 253 257 262 260 267 265 267 271 274 270 270 268 262 272 260 263 261 254 253 256 252 254 250 244 228 230
276 275 274 273 274 274 274 275 273 272 270 271 270 268 269 270 269 267 263 255 252 248 257 259 260 268 266 257 260 257 262 266 260 258 257 251 249 252 248 243 232 225 239
288 286 284 283 283 282 280 278 277 275 274 271 270 268 266 265 264 264 263 260 258 257 259 263 257 262 264 256 265 264 261 265 258 251 245 246 250 247 243 226 220 233 239
296 294 292 289 286 285 285 283 282 279 278 276 273 269 267 267 264 263 262 262 259 258 258 254 257 254 252 256 259 259 261 256 248 245 239 247 245 239 229 224 223 233 239
302 300 298 296 294 291 287 284 282 281 279 277 275 272 269 266 264 262 260 260 259 259 259 255 255 255 258 256 251 259 254 258 253 261 244 249 242 233 231 232 227 233 238
300 298 296 294 292 291 290 289 287 287 285 284 282 281 279 275 271 266 262 260 258 257 256 256 255 254 252 249 252 247 247 258 248 245 248 248 253 247 247 235 233 232 237
301 300 298 296 294 292 291 290 288 287 287 286 284 284 284 282 279 275 272 266 261 258 256 254 254 254 251 250 246 248 247 248 246 243 249 248 243 243 246 252 233 228 233
303 301 300 298 296 295 293 290 288 286 285 283 282 281 278 277 278 277 277 277 274 269 260 255 252 252 251 249 246 242 247 236 246 242 237 242 245 245 247 243 233 224 226